Malmstrom AFB, MT

6:29 AM MST on February 24, 2017 (GMT -0700)
Malmstrom AFB

Weather History for KGFA - November, 2012

Change the Weather History Date:

Tuesday, November 27, 2012

  Actual Average (KGTF) Record (KGTF)
Temperature  
Mean Temperature 34 °F -  
Max Temperature 42 °F 36 °F 64 °F (1914)
Min Temperature 25 °F 18 °F -24 °F (1985)
Degree Days  
Heating Degree Days 32    
Moisture  
Dew Point 20 °F    
Average Humidity 60    
Maximum Humidity 70    
Minimum Humidity 43    
Precipitation  
Precipitation 0.00 in - - ()
Sea Level Pressure  
Sea Level Pressure 30.20 in    
Wind  
Wind Speed 7 mph (SSW)    
Max Wind Speed 13 mph    
Max Gust Speed -    
Visibility 10 miles    
Events      
Averages and records for this station are not official NWS values.
T = Trace of Precipitation, MM = Missing Value Source: NWS Daily Summary

Daily Weather History Graph

Daily Weather History Graph

Search for Another Location

Airport or City:

Trip Planner

Search our weather history database for the weather conditions in past years. The results will help you decide how hot, cold, wet, or windy it might be!

Date:

Astronomy

Nov. 27, 2012 Rise Set
Actual Time 7:47 AM MST 4:37 PM MST
Civil Twilight 7:12 AM MST 5:12 PM MST
Nautical Twilight 6:34 AM MST 5:50 PM MST
Astronomical Twilight 5:57 AM MST 6:27 PM MST
Moon 4:12 PM MST (11/27) 6:53 AM MST (11/27)
Length of Visible Light 9h 59m
Length of Day
8h 50m
Waxing Gibbous, 99% of the Moon is Illuminated
Nov 27
Waxing Gibbous
Nov 28
Full
Dec 6
Last Quarter
Dec 13
New
Dec 19
First Quarter

Hourly Weather History & Observations

Time (MST) Temp. Windchill Dew Point Humidity Pressure Visibility Wind Dir Wind Speed Gust Speed Precip Events Conditions
12:56 AM 25.0 °F 14.2 °F 15.1 °F 66% 30.20 in 10.0 mi SSW 11.5 mph - N/A   Clear
1:56 AM 27.0 °F 17.3 °F 14.0 °F 58% 30.19 in 10.0 mi SSW 10.4 mph - N/A   Clear
2:56 AM 26.1 °F 16.8 °F 15.1 °F 63% 30.20 in 10.0 mi SSW 9.2 mph - N/A   Clear
3:56 AM 28.9 °F 20.4 °F 15.1 °F 56% 30.18 in 10.0 mi SW 9.2 mph - N/A   Clear
4:56 AM 28.0 °F 22.8 °F 16.0 °F 61% 30.20 in 10.0 mi SW 4.6 mph - N/A   Clear
5:56 AM 27.0 °F - 15.1 °F 61% 30.23 in 10.0 mi Calm Calm - N/A   Clear
6:56 AM 28.0 °F - 14.0 °F 56% 30.25 in 10.0 mi Calm Calm - N/A   Clear
7:56 AM 26.1 °F - 16.0 °F 66% 30.25 in 10.0 mi Calm Calm - N/A   Clear
8:56 AM 25.0 °F - 16.0 °F 69% 30.27 in 10.0 mi Calm Calm - N/A   Clear
9:56 AM 28.9 °F - 19.9 °F 69% 30.28 in 10.0 mi Calm Calm - N/A   Clear
10:56 AM 32.0 °F - 21.9 °F 66% 30.28 in 10.0 mi Calm Calm - N/A   Clear
11:56 AM 34.0 °F 29.8 °F 25.0 °F 70% 30.25 in 10.0 mi South 4.6 mph - N/A   Clear
12:56 PM 41.0 °F 35.2 °F 19.9 °F 43% 30.23 in 10.0 mi SW 9.2 mph - N/A   Clear
1:56 PM 39.9 °F 32.5 °F 21.9 °F 49% 30.21 in 10.0 mi SSW 12.7 mph - N/A   Clear
2:56 PM 42.1 °F 35.2 °F 21.0 °F 43% 30.19 in 10.0 mi SW 12.7 mph - N/A   Clear
3:56 PM 37.9 °F 30.9 °F 21.9 °F 53% 30.19 in 10.0 mi SSW 10.4 mph - N/A   Clear
4:56 PM 32.0 °F 25.6 °F 21.9 °F 66% 30.21 in 10.0 mi SSE 6.9 mph - N/A   Clear
5:56 PM 33.1 °F 27.7 °F 23.0 °F 66% 30.19 in 10.0 mi South 5.8 mph - N/A   Clear
6:56 PM 33.1 °F - 23.0 °F 66% 30.18 in 10.0 mi Calm Calm - N/A   Clear
7:56 PM 36.0 °F 28.5 °F 24.1 °F 62% 30.17 in 10.0 mi South 10.4 mph - N/A   Clear
8:56 PM 37.0 °F 29.3 °F 24.1 °F 59% 30.15 in 10.0 mi SSW 11.5 mph - N/A   Clear
9:56 PM 37.9 °F 30.5 °F 23.0 °F 55% 30.12 in 10.0 mi SSW 11.5 mph - N/A   Clear
10:56 PM 39.0 °F 31.4 °F 23.0 °F 53% 30.11 in 10.0 mi South 12.7 mph - N/A   Clear
11:56 PM 39.0 °F 31.8 °F 23.0 °F 53% 30.09 in 10.0 mi South 11.5 mph - N/A   Clear